Location: Unspecified
(0.0000°N, 0.0000°E)
Time: 23:24:15
(UTC+02:00)

deb Ariane - Visible Passes

Search period start: 17 April 2014 00:00
Search period end: 27 April 2014 00:00
Orbit: 183 x 18351 km, 7.5° (Epoch: 17 April)

Date Brightness Start Highest point End Pass type
(mag) Time Alt. Az. Time Alt. Az. Time Alt. Az.
17 Apr 8.6 01:27:47 58° ESE 00:11:01 78° S 03:56:07 10° E visible
17 Apr 8.2 06:52:29 17° W 09:43:17 78° NNW 09:55:32 10° ENE visible
17 Apr 7.1 21:10:11 10° W 21:19:37 78° S 00:01:36 10° E visible
18 Apr 9.7 03:04:33 10° W 06:41:21 89° SSE 07:24:30 10° E visible
19 Apr 9.0 00:23:29 10° W 02:07:08 71° ESE 04:44:12 10° E visible
19 Apr 7.8 07:56:00 10° W 10:27:17 72° NNW 10:36:30 10° ENE visible
19 Apr 7.6 21:49:59 10° W 22:02:38 76° S 01:25:37 10° E visible
20 Apr 9.4 03:50:06 10° W 07:34:27 87° N 08:03:58 10° E visible
21 Apr 9.2 01:01:40 10° W 02:40:57 80° SSE 05:24:00 10° E visible
21 Apr 8.0 22:24:16 10° W 22:40:44 76° S 02:18:23 10° E visible
22 Apr 9.0 05:37:21 37° W 08:15:07 84° N 08:37:18 10° ENE visible
22 Apr 5.9 19:49:48 10° W 19:55:13 76° S 20:35:37 10° E visible
23 Apr 9.3 01:34:23 10° W 03:49:17 84° SSE 05:56:39 10° E visible
23 Apr 8.4 22:53:00 10° W 23:13:49 76° S 02:56:31 10° E visible
24 Apr 8.8 06:02:32 29° W 08:46:53 80° N 09:04:44 10° ENE visible
24 Apr 6.3 20:15:33 10° W 20:22:04 74° S 21:01:48 16° E visible
25 Apr 9.4 02:01:32 10° W 04:53:40 87° SSE 06:22:48 10° E visible
25 Apr 8.7 23:16:10 10° W 23:41:35 77° S 03:24:46 10° E visible
26 Apr 8.5 06:22:12 23° W 09:11:15 77° N 09:26:24 10° ENE visible
26 Apr 6.6 20:35:46 10° W 20:43:17 72° S 21:21:13 22° E visible
